Theta_e
311 311 311 310 309 310 309 310 308 310 310 315 323 327 328 334 337 335 337 342 345 345 346 346 345 347 345 345 347 348 347 346 347 348 349 345 345 343 343 344 342 342 341 340
310 311 310 308 309 309 311 311 312 313 312 323 328 331 329 334 337 336 336 339 343 344 347 344 345 345 347 348 348 350 348 346 348 348 348 344 345 341 341 340 340 340 338 336
306 309 309 305 309 310 311 313 313 310 318 325 327 329 330 332 338 337 338 337 342 344 344 346 347 348 348 349 351 351 349 348 347 348 347 344 345 341 339 337 339 337 337 335
307 309 300 311 316 315 313 315 316 316 320 326 329 333 335 336 335 338 339 339 343 344 344 346 348 350 352 351 352 350 351 349 349 349 346 345 343 338 336 336 335 333 334 334
303 304 307 310 314 314 311 311 317 317 321 325 329 333 335 338 340 340 342 342 346 349 345 349 350 352 352 351 352 349 348 349 350 349 347 345 341 337 337 334 333 334 333 332
307 302 299 310 318 323 320 308 318 324 322 324 327 317 328 335 343 343 346 348 346 345 345 343 343 348 347 345 345 342 342 342 345 346 342 342 341 338 336 335 333 331 331 328
303 303 306 315 323 324 308 316 332 332 333 333 330 333 334 334 335 338 338 338 340 340 338 337 342 345 341 340 335 332 333 335 332 341 339 340 338 339 335 332 331 329 327 326
304 301 299 320 320 314 328 336 334 334 334 333 330 329 328 329 328 331 333 334 336 334 329 331 334 338 334 329 327 329 328 325 321 320 322 326 328 326 330 329 329 324 322 318
308 307 327 328 333 335 335 335 336 335 334 334 331 328 328 327 329 325 325 327 329 329 327 328 328 329 322 321 323 324 322 319 317 316 315 316 315 314 315 316 314 315 308 309
314 317 322 327 331 333 335 336 336 335 334 334 334 331 328 329 325 325 327 328 329 329 326 322 323 323 322 323 324 322 319 316 315 313 312 312 313 315 312 311 309 309 308 308
314 321 323 326 331 332 334 334 334 334 334 334 334 332 328 327 326 325 327 330 330 327 323 320 322 322 323 322 322 318 316 314 312 310 306 304 303 305 307 308 310 308 310 310
312 324 326 328 332 333 331 333 332 332 332 334 333 333 330 328 329 331 329 327 326 324 323 322 322 322 321 322 322 320 318 316 315 312 309 308 306 303 299 299 297 296 298 306
320 326 328 330 331 332 332 332 333 333 333 332 334 333 332 331 331 322 325 324 322 322 323 322 320 320 321 323 324 324 321 320 316 316 317 316 314 312 309 301 296 294 294 294
322 325 325 326 327 330 330 331 328 333 333 332 331 331 331 327 325 325 322 322 322 322 321 321 320 320 323 323 323 323 323 312 322 321 320 319 318 316 314 312 310 307 296 300
321 322 324 327 327 328 328 328 327 329 329 329 330 329 327 324 323 321 322 323 322 322 321 321 320 320 323 324 324 323 321 317 314 312 311 310 311 310 310 310 310 309 306 300
319 321 321 322 323 324 325 324 325 326 327 328 329 328 327 324 323 321 323 323 322 320 322 323 322 323 325 325 320 315 313 311 311 311 311 311 312 311 310 310 310 309 308 308
314 315 318 319 320 320 322 324 324 327 326 328 328 327 326 324 322 321 322 322 324 324 325 325 324 326 323 318 316 313 312 312 310 313 313 313 313 312 312 312 311 309 309 304
318 319 320 320 319 319 318 321 325 325 325 326 328 327 325 323 319 321 321 324 324 324 324 324 323 319 317 317 316 314 314 314 315 314 314 315 315 316 316 315 314 313 310 306
317 317 319 320 320 321 320 320 325 327 326 327 327 325 325 322 320 321 323 323 322 319 319 320 316 317 318 317 316 316 315 316 315 316 317 310 315 316 315 315 314 314 313 310
317 318 319 319 320 321 320 321 324 325 328 328 327 325 322 322 321 321 323 320 323 321 320 316 317 318 319 316 313 317 317 318 318 315 315 314 316 316 315 309 313 314 314 313
316 317 318 319 320 321 321 323 321 324 328 329 325 322 320 321 321 321 320 318 321 318 317 314 319 318 318 316 315 318 318 317 317 318 314 316 313 315 316 315 314 313 316 314
316 316 318 320 321 322 323 323 323 327 328 327 325 323 320 320 321 320 323 320 319 310 314 319 318 312 317 313 318 317 318 316 312 314 313 314 314 313 314 314 313 315 315 315
315 316 319 321 322 324 325 326 326 328 326 325 323 322 320 320 320 319 315 320 319 315 316 313 301 308 310 318 316 315 312 312 314 312 312 313 313 313 312 312 311 311 311 311
314 316 320 325 326 325 323 325 326 327 326 323 323 323 320 318 318 317 316 311 307 312 312 308 305 305 307 311 310 309 307 307 310 311 311 301 310 310 310 310 310 310 310 308
315 316 317 319 317 317 318 318 317 318 318 319 319 317 316 316 313 316 314 312 306 311 310 304 305 306 311 311 311 311 311 310 309 308 309 309 309 309 309 309 309 309 308 310
315 315 316 317 315 315 315 314 312 313 311 309 310 311 312 312 312 313 315 312 312 309 310 311 311 312 311 311 311 314 313 311 310 311 308 310 310 310 309 309 309 309 310 310
314 310 315 315 316 316 316 314 311 309 310 309 307 309 310 310 310 311 309 312 312 312 311 311 310 311 315 314 312 310 310 310 303 309 310 310 310 310 309 309 309 308 309 307
Wind_Speed
17 17 9 11 10 14 13 14 18 9 4 23 16 6 6 9 13 13 13 14 14 14 13 14 12 12 10 8 9 9 8 7 7 6 7 5 3 6 6 7 6 8 7 8
16 16 10 13 12 14 10 13 14 20 12 6 10 11 7 9 12 13 13 13 15 15 15 14 13 11 10 9 9 9 8 8 7 7 7 5 5 5 6 5 7 7 7 8
13 17 15 14 13 14 14 14 15 11 6 16 10 10 7 5 12 13 13 13 13 15 14 13 14 12 11 11 10 9 8 8 7 6 8 5 6 7 6 5 6 6 6 8
12 15 14 8 2 7 8 10 9 9 3 6 4 8 8 2 7 11 12 11 12 12 12 12 12 10 10 11 9 7 5 5 8 8 9 8 6 7 7 5 5 5 5 7
13 12 14 11 6 9 9 11 11 10 4 4 3 7 10 8 3 4 6 9 9 7 9 5 6 4 6 5 5 5 2 2 3 5 10 9 8 8 7 6 5 5 5 6
12 13 18 13 5 9 1 9 14 3 5 6 6 9 8 5 10 11 11 11 10 10 10 7 4 4 5 5 5 4 1 3 4 4 9 10 8 7 8 6 6 5 6 7
13 14 12 14 6 3 11 3 9 9 10 10 6 7 8 6 7 7 7 7 8 7 8 5 4 4 5 6 5 4 4 4 5 2 6 4 6 5 8 6 7 7 7 6
14 17 19 8 3 12 8 9 7 8 7 10 11 10 9 8 7 6 7 8 7 8 8 6 5 3 6 7 5 5 4 6 6 8 6 6 7 6 4 6 8 7 7 6
11 9 7 6 10 7 5 5 7 5 7 9 10 11 9 9 7 12 11 9 7 7 7 6 5 6 7 5 5 6 7 6 8 9 9 8 8 7 6 7 6 7 5 4
5 8 6 4 7 7 9 7 5 4 3 4 10 10 9 8 9 6 6 5 5 6 6 5 6 7 7 6 6 8 8 7 8 9 9 8 5 5 5 5 4 5 4 4
11 4 3 7 9 6 7 5 4 3 3 6 6 9 9 9 7 6 6 5 4 5 5 6 7 7 6 6 8 8 8 8 9 8 9 8 7 5 5 5 3 5 3 4
2 9 6 6 5 4 3 6 3 5 6 4 6 9 9 9 9 9 7 5 6 6 7 7 7 6 6 6 6 8 8 7 8 8 7 7 7 7 13 8 9 8 7 2
7 8 6 3 3 4 4 3 3 2 4 4 8 7 7 7 7 9 6 7 6 6 7 7 7 7 5 6 5 5 8 9 8 7 8 8 8 8 8 7 11 10 9 8
5 7 6 2 3 4 3 3 3 1 3 4 5 4 6 9 8 8 8 7 8 8 8 8 8 8 7 7 7 7 8 6 7 7 7 6 6 7 8 8 8 7 3 5
0 6 8 7 2 3 2 3 4 7 7 7 7 7 9 9 9 9 9 9 9 8 8 9 9 9 8 9 10 9 7 6 6 6 6 5 5 5 5 5 6 8 7 6
9 9 9 6 2 1 3 3 6 9 7 7 9 9 11 9 9 9 9 10 10 8 9 10 10 10 10 10 8 8 7 8 7 7 6 6 5 6 6 5 4 5 7 8
10 11 7 9 6 2 4 4 5 6 8 8 8 8 11 11 9 9 8 6 8 9 8 10 10 10 10 9 9 8 8 6 3 5 5 5 4 4 4 3 3 3 4 8
9 8 9 9 4 6 6 4 4 6 4 10 8 8 9 11 10 10 9 9 9 8 8 9 10 11 10 10 9 8 7 6 4 6 5 3 3 2 1 1 1 1 5 7
10 11 10 9 9 9 5 7 3 9 10 8 9 9 8 8 10 9 10 10 9 9 9 10 8 8 9 4 2 6 5 5 4 4 2 4 6 3 4 3 4 3 3 8
10 11 12 13 11 12 8 9 9 6 7 8 9 10 10 10 8 10 9 9 9 9 11 13 11 10 8 5 8 5 4 3 2 7 6 4 5 4 5 5 6 9 4 1
10 12 14 12 13 13 11 10 8 7 11 10 10 10 9 8 8 9 10 8 11 13 13 12 9 9 9 9 8 4 8 6 4 1 3 2 6 5 4 5 6 6 3 3
12 12 13 12 12 11 11 12 11 7 7 8 10 12 10 8 9 7 7 7 9 9 11 8 6 10 8 4 5 2 3 4 6 8 4 4 5 5 5 6 4 2 4 4
12 12 13 14 13 13 8 6 4 7 7 9 10 13 8 9 8 6 4 6 11 7 6 9 10 13 7 2 7 7 9 7 5 4 5 5 6 3 4 5 6 7 5 5
9 9 5 3 6 7 8 6 7 7 10 12 10 10 7 6 2 4 9 14 17 12 12 11 13 16 11 7 7 6 6 5 6 5 5 3 7 6 5 6 7 8 9 9
4 4 4 6 8 7 9 10 11 11 12 12 12 10 11 8 7 7 11 11 14 14 11 10 11 10 6 4 3 3 4 6 3 7 7 4 6 7 8 7 7 8 8 9
7 6 6 8 8 7 7 8 8 8 8 9 7 7 7 8 8 9 7 9 9 9 6 4 4 4 3 3 5 8 8 2 4 1 4 6 8 7 9 10 9 10 11 10
7 7 8 9 8 7 8 10 10 9 7 7 9 6 8 8 8 7 7 6 5 5 4 4 6 7 6 7 5 1 5 6 7 7 6 6 7 8 8 9 9 9 10 11
Wind_Direction
262 276 262 264 224 212 235 244 258 262 144 326 85 64 81 155 157 169 174 174 162 164 156 158 157 197 174 165 152 157 162 163 152 131 109 121 104 74 73 62 60 60 41 47
270 263 245 260 242 261 251 240 252 263 308 130 103 86 74 152 168 180 183 187 169 167 165 162 179 177 175 155 160 169 171 166 155 153 129 133 115 108 75 71 63 57 60 51
249 241 234 232 245 251 237 251 253 266 16 10 71 78 79 163 174 187 187 190 178 170 174 180 181 183 170 161 168 172 180 181 172 170 129 159 127 106 101 83 85 79 70 69
262 258 240 243 271 316 322 309 260 253 221 110 82 96 78 342 187 184 187 189 183 173 180 180 182 173 178 167 179 179 203 187 165 185 145 160 147 128 126 120 104 83 82 83
255 254 274 255 187 233 246 265 270 248 278 129 127 156 77 17 26 153 163 166 182 164 165 148 134 136 153 181 178 191 121 249 74 183 168 170 166 152 144 140 129 119 109 92
258 250 254 272 19 58 314 266 276 71 273 295 174 253 77 57 39 65 49 74 86 88 79 72 79 180 158 134 97 107 70 357 325 358 132 166 167 145 145 151 143 131 93 68
235 258 255 269 79 184 223 38 36 14 26 24 53 47 89 90 80 71 81 107 119 130 117 131 188 166 137 136 95 55 21 37 20 84 154 158 143 147 145 163 137 119 113 89
236 247 245 172 221 259 48 82 45 58 51 88 96 95 98 102 109 125 129 137 147 110 79 53 29 121 104 89 72 61 60 77 55 54 54 60 77 48 66 120 131 118 120 94
239 236 77 29 74 76 39 64 53 41 73 108 118 115 122 116 106 68 70 65 77 110 125 105 73 84 109 92 88 77 74 70 79 69 62 58 70 61 58 65 83 95 84 102
298 167 122 98 110 74 45 47 61 46 59 87 103 117 122 123 104 107 120 110 129 122 100 91 77 82 92 97 93 97 94 85 77 79 73 61 68 85 88 88 87 105 115 105
252 136 128 104 50 40 87 79 90 118 100 97 106 115 127 129 141 144 155 162 139 121 124 118 106 97 95 106 101 97 95 95 87 83 80 75 57 39 70 46 101 127 127 123
353 40 326 72 48 27 48 79 80 105 118 103 107 136 142 152 162 165 127 132 132 131 132 120 112 111 107 102 119 123 128 121 109 113 109 108 102 84 53 67 64 59 54 52
18 349 342 45 52 22 28 51 100 114 109 126 141 139 137 128 93 91 135 138 138 130 122 117 116 109 115 126 150 147 111 124 119 128 130 138 138 133 115 84 70 57 68 60
348 318 256 190 76 50 67 83 186 112 120 141 124 131 120 104 139 126 124 124 128 135 140 134 133 130 138 128 127 123 130 182 145 152 145 139 130 125 141 147 129 121 111 108
184 322 295 329 216 119 316 147 167 143 118 110 106 118 127 139 134 126 137 138 144 145 142 142 141 135 142 145 146 156 160 124 113 109 92 96 107 99 94 99 115 119 130 173
303 291 286 226 320 188 220 250 256 131 141 162 159 155 136 134 142 143 156 151 157 154 152 141 134 138 147 143 148 115 90 61 113 133 146 122 111 100 97 107 143 146 181 150
282 264 314 319 197 180 248 205 260 156 162 160 147 138 136 142 143 147 141 109 115 142 145 138 134 139 136 152 146 140 127 150 346 137 118 107 97 94 78 90 114 103 128 70
283 294 287 288 262 242 276 255 208 137 168 131 139 162 151 155 155 156 150 148 145 147 133 131 139 141 158 156 152 148 138 179 163 110 113 168 77 122 192 122 137 154 150 139
277 274 270 269 272 274 259 280 68 172 166 156 166 170 153 149 150 162 158 155 157 145 139 136 111 166 157 121 253 168 159 159 137 145 184 120 217 251 328 306 281 224 235 153
275 267 264 262 246 253 244 251 199 193 173 196 162 142 155 157 162 165 164 169 180 143 143 140 174 152 157 172 285 251 155 211 260 48 53 333 319 256 246 228 270 303 299 36
295 295 284 270 267 240 242 239 255 179 160 177 157 153 157 160 167 161 181 170 120 137 142 168 186 154 178 168 237 276 37 25 43 12 258 290 280 244 231 264 276 245 285 298
297 290 275 278 269 251 237 244 226 168 172 165 155 149 157 166 145 175 200 124 139 163 155 186 118 29 82 359 242 76 102 51 8 346 301 301 314 289 313 340 318 341 298 266
274 276 279 263 244 238 205 223 185 151 177 122 141 142 171 156 153 171 155 169 141 188 106 76 55 45 352 43 46 36 26 12 345 253 271 343 316 325 320 357 0 317 312 332
273 263 272 30 84 108 115 117 100 114 114 112 120 114 106 124 68 93 93 66 68 75 81 78 65 53 53 62 54 27 355 307 277 331 344 320 351 350 345 4 340 343 351 350
173 140 127 122 109 96 87 85 87 85 87 93 90 84 88 69 83 57 73 89 81 95 92 81 84 80 73 46 14 344 289 263 19 341 336 354 327 6 360 355 358 5 334 8
85 76 71 81 89 92 89 86 83 83 89 84 74 81 85 89 88 85 92 103 100 104 111 121 120 108 134 204 221 238 255 47 281 289 332 346 11 352 359 358 356 11 12 35
85 89 81 75 70 78 94 100 96 82 82 101 102 93 100 91 91 105 120 121 118 124 135 156 173 187 223 229 218 94 81 90 38 358 355 10 7 8 8 4 13 23 18 34